Flag for United Kingdom Weather past 2 weeks in Cambridge, England, United Kingdom

Now
50 °F

Mostly cloudy.


Feels Like: 45 °F
Forecast: 44 / 60 °F
Wind: 15 mph from Southwest

Location: Mildenhall Royal Air Force Base

Current Time: May 6, 2015 at 5:28:46 AM

Latest Report: May 6, 2015 at 4:58 AM


Visibility: N/A

Pressure: 29.53 "Hg

Humidity: 81%

Dew point: 45 °F

Location of CambridgeLocation

Historic Weather in Cambridge — Graph

°F

Cambridge temperature yesterday

Maximum temperature yesterday: 61 °F (at 9:58 AM)
Minimum temperature yesterday: 53 °F (at 11:58 PM)
Average temperature yesterday: 57 °F

Past Weeks' High & Low Weather Summary

 TemperatureHumidityPressure
High67 °F (May 3, 3:58 PM)100% (Apr 22, 5:03 AM)30.57 "Hg (Apr 22, 5:03 AM)
Low31 °F (May 1, 4:58 AM)31% (Apr 27, 12:58 PM)29.15 "Hg (May 5, 7:58 AM)
Average50 °F73%29.84 "Hg
* Reported Apr 21 3:58 AM — May 6 3:58 AM, Cambridge, Weather by CustomWeather, © 2015

Note: Actual official high and low records may vary slightly from our data, if they occured in-between our weather recording intervals... More about our weather records

Advertising

Cambridge weather history for previous 24 hours

 ConditionsComfort  
Time TempWeatherWind HumidityBarometerVisibility
3:58 AM
Wed, May 6
50 °FPassing clouds.18 mph84%29.53 "HgN/A
2:58 AM51 °FPassing clouds.17 mph78%29.54 "HgN/A
1:58 AM51 °FLight rain. Passing clouds.20 mph83%29.55 "HgN/A
12:58 AM53 °FPassing clouds.21 mph71%29.55 "HgN/A
11:58 PM
Tue, May 5
53 °FPassing clouds.17 mph70%29.55 "HgN/A
10:58 PM53 °FPassing clouds.21 mph68%29.53 "HgN/A
9:58 PM54 °FPassing clouds.21 mph67%29.52 "HgN/A
8:58 PM55 °FScattered clouds.21 mph63%29.50 "HgN/A
7:58 PM57 °FPartly sunny.29 mph57%29.47 "HgN/A
6:58 PM58 °FPartly sunny.28 mph53%29.46 "HgN/A
5:58 PM59 °FOvercast.31 mph51%29.45 "HgN/A
4:58 PM60 °FScattered clouds.28 mph49%29.45 "HgN/A
3:58 PM61 °FBroken clouds.30 mph49%29.44 "HgN/A
2:58 PM61 °FScattered clouds.24 mph47%29.42 "HgN/A
1:58 PM61 °FScattered clouds.26 mph51%29.38 "HgN/A
12:58 PM58 °FPartly sunny.21 mph64%29.35 "HgN/A
12:03 PM57 °FMostly cloudy.28 mph67%29.29 "HgN/A
11:58 AM58 °FCloudy.32 mph70%29.30 "HgN/A
11:04 AM61 °FLight rain. Mostly cloudy.30 mph77%29.21 "Hg2 mi
10:58 AM60 °FCloudy.24 mph79%29.22 "HgN/A
10:03 AM61 °FMostly cloudy.21 mph83%29.16 "HgN/A
9:58 AM61 °FMore clouds than sun.22 mph81%29.17 "HgN/A
8:58 AM61 °FMore clouds than sun.17 mph87%29.15 "HgN/A
7:58 AM60 °FBroken clouds.13 mph94%29.15 "HgN/A
6:58 AM58 °FOvercast.9 mph99%29.16 "HgN/A
5:58 AM57 °FLow clouds.10 mph100%29.16 "HgN/A
5:03 AM55 °FLow clouds.10 mph100%29.15 "HgN/A
Weather by CustomWeather, © 2015

See weather overviewHow to use our weather pages